Flag for U.S.A. Weather past 2 weeks in Lexington, North Carolina, U.S.A.

46 °F


Feels Like: 46 °F
Forecast: 37 / 60 °F
Wind: No wind

Location: Davidson County Airport

Current Time: Nov 25, 2015 at 7:47:24 PM

Latest Report: Nov 25, 2015 at 6:35 PM

Visibility: 10 mi

Pressure: 30.64 "Hg

Humidity: 51%

Dew point: 28 °F

Location of LexingtonLocation

Historic Weather in Lexington — Graph


Lexington temperature yesterday

Maximum temperature yesterday: 56 °F (at 2:15 PM)
Minimum temperature yesterday: 25 °F (at 5:35 AM)
Average temperature yesterday: 39 °F

Past Weeks' High & Low Weather Summary

High72 °F (Nov 12, 3:35 PM)99% (Nov 16, 7:55 AM)30.64 "Hg (Nov 16, 7:55 AM)
Low25 °F (Nov 24, 5:35 AM)15% (Nov 13, 1:15 PM)29.77 "Hg (Nov 12, 3:15 PM)
Average49 °F62%30.18 "Hg
* Reported Nov 10 5:15 PM — Nov 25 5:55 PM, Lexington, Weather by CustomWeather, © 2015

Note: Actual official high and low records may vary slightly from our data, if they occured in-between our weather recording intervals... More about our weather records


Lexington weather history for previous 24 hours

Time TempWeatherWind HumidityBarometerVisibility
5:55 PM
Wed, Nov 25
48 °FClear.No wind47%30.63 "Hg10 mi
5:35 PM48 °FClear.No wind49%30.62 "Hg10 mi
5:10 PM50 °FClear.No wind44%30.61 "Hg10 mi
4:55 PM52 °FSunny.No wind40%30.61 "Hg10 mi
4:35 PM54 °FSunny.3 mph35%30.61 "Hg10 mi
3:55 PM57 °FSunny.6 mph29%30.60 "Hg10 mi
3:35 PM58 °FSunny.5 mph28%30.60 "Hg10 mi
3:15 PM58 °FSunny.No wind30%30.59 "Hg10 mi
2:55 PM57 °FSunny.5 mph33%30.59 "Hg10 mi
2:35 PM57 °FSunny.No wind32%30.59 "Hg10 mi
2:15 PM58 °FSunny.5 mph32%30.59 "Hg10 mi
1:55 PM58 °FSunny.No wind32%30.59 "Hg10 mi
1:35 PM58 °FSunny.No wind31%30.60 "Hg10 mi
1:15 PM58 °FSunny.5 mph31%30.60 "Hg10 mi
12:55 PM57 °FSunny.3 mph32%30.61 "Hg10 mi
12:35 PM57 °FSunny.5 mph32%30.61 "Hg10 mi
12:15 PM56 °FSunny.6 mph35%30.62 "Hg10 mi
11:55 AM56 °FSunny.5 mph36%30.62 "Hg10 mi
11:35 AM56 °FSunny.6 mph38%30.63 "Hg10 mi
11:15 AM54 °FSunny.3 mph42%30.64 "Hg10 mi
10:55 AM53 °FSunny.5 mph44%30.64 "Hg10 mi
10:35 AM52 °FSunny.No wind47%30.64 "Hg10 mi
10:15 AM50 °FSunny.No wind50%30.64 "Hg10 mi
9:55 AM48 °FSunny.No wind53%30.63 "Hg10 mi
9:35 AM47 °FSunny.No wind57%30.63 "Hg10 mi
9:15 AM44 °FSunny.No wind69%30.62 "Hg10 mi
8:55 AM40 °FSunny.No wind77%30.61 "Hg10 mi
8:35 AM36 °FSunny.No wind88%30.61 "Hg10 mi
8:15 AM34 °FSunny.No wind94%30.60 "Hg10 mi
7:55 AM31 °FSunny.No wind96%30.59 "Hg10 mi
7:35 AM30 °FSunny.No wind96%30.58 "Hg10 mi
7:15 AM29 °FSunny.No wind96%30.58 "Hg10 mi
6:55 AM29 °FClear.No wind96%30.57 "Hg10 mi
6:35 AM29 °FClear.No wind96%30.56 "Hg10 mi
6:15 AM30 °FClear.No wind96%30.56 "Hg10 mi
5:55 AM30 °FClear.No wind96%30.55 "Hg10 mi
5:35 AM30 °FClear.No wind96%30.55 "Hg10 mi
5:15 AM31 °FClear.No wind95%30.54 "Hg10 mi
4:55 AM31 °FClear.No wind95%30.53 "Hg10 mi
4:35 AM31 °FClear.No wind94%30.52 "Hg10 mi
4:15 AM31 °FClear.No wind95%30.52 "Hg10 mi
3:55 AM31 °FClear.No wind93%30.51 "Hg10 mi
3:35 AM32 °FClear.No wind93%30.51 "Hg10 mi
3:15 AM32 °FClear.No wind93%30.51 "Hg10 mi
2:55 AM32 °FClear.No wind93%30.51 "Hg10 mi
2:15 AM32 °FClear.No wind92%30.50 "Hg10 mi
1:55 AM33 °FClear.No wind91%30.49 "Hg10 mi
1:15 AM34 °FClear.No wind92%30.49 "Hg10 mi
12:55 AM34 °FClear.No wind88%30.48 "Hg10 mi
12:15 AM35 °FClear.No wind85%30.48 "Hg10 mi
11:55 PM
Tue, Nov 24
36 °FClear.No wind81%30.47 "Hg10 mi
11:15 PM36 °FClear.No wind80%30.47 "Hg10 mi
10:35 PM36 °FClear.3 mph81%30.46 "Hg10 mi
10:15 PM37 °FClear.No wind80%30.46 "Hg10 mi
9:55 PM38 °FClear.No wind77%30.46 "Hg10 mi
9:35 PM38 °FClear.No wind77%30.45 "Hg10 mi
9:15 PM38 °FClear.No wind73%30.44 "Hg10 mi
8:55 PM38 °FClear.No wind70%30.44 "Hg10 mi
8:35 PM39 °FClear.No wind66%30.44 "Hg10 mi
8:15 PM40 °FClear.No wind64%30.44 "Hg10 mi
7:35 PM41 °FClear.No wind62%30.42 "Hg10 mi
7:15 PM42 °FClear.No wind58%30.42 "Hg10 mi
Weather by CustomWeather, © 2015

See weather overviewHow to use our weather pages